Flag for Yemen Weather past 2 weeks in Al Hudaydah, Yemen

Now
88 °F

Passing clouds.


Feels Like: 100 °F
Forecast: 85 / 94 °F
Wind: 13 mph from South

Location: Hodeidah

Current Time: Oct 21, 2014 at 6:20:37 PM

Latest Report: Oct 21, 2014 at 6:00 PM


Visibility: 3 mi

Pressure: 29.80 "Hg

Humidity: 70%

Dew point: 77 °F

Location of Al HudaydahLocation

Historic Weather in Al Hudaydah — Graph

°F

Al Hudaydah temperature yesterday

Maximum temperature yesterday: 93 °F (at 1:00 PM)
Minimum temperature yesterday: 81 °F (at 6:00 AM)
Average temperature yesterday: 87 °F

Past Weeks' High & Low Weather Summary

 TemperatureHumidityPressure
High95 °F (Oct 9, 3:00 PM)100% (Oct 15, 8:00 PM)29.92 "Hg (Oct 15, 8:00 PM)
Low77 °F (Oct 7, 7:00 PM)44% (Oct 19, 5:00 PM)29.74 "Hg (Oct 8, 4:00 PM)
Average88 °F68%29.84 "Hg
* Reported Oct 6 5:00 PM — Oct 21 5:00 PM, Al Hudaydah, Weather by CustomWeather, © 2014

Note: Actual official high and low records may vary slightly from our data, if they occured in-between our weather recording intervals... More about our weather records

Advertising

Al Hudaydah weather history for previous 24 hours

 ConditionsComfort  
Time TempWeatherWind HumidityBarometerVisibility
5:00 PM
Oct 21
90 °FClear.17 mph63%29.80 "Hg4 mi
4:00 PM90 °FDuststorm.18 mph59%29.80 "Hg3 mi
3:00 PM91 °FDuststorm.23 mph63%29.80 "Hg2 mi
2:00 PM93 °FLow level haze.20 mph59%29.80 "Hg2 mi
1:00 PM91 °FClear.18 mph56%29.83 "Hg3 mi
12:00 PM91 °FClear.21 mph59%29.86 "Hg3 mi
11:00 AM91 °FDuststorm.18 mph59%29.89 "Hg2 mi
10:00 AM90 °FDuststorm.22 mph63%29.89 "Hg3 mi
9:00 AM88 °FPassing clouds.13 mph62%29.92 "Hg5 mi
8:00 AM84 °FPassing clouds.10 mph74%29.89 "Hg4 mi
7:00 AM81 °FHaze.6 mph84%29.86 "Hg3 mi
6:00 AM81 °FHaze.5 mph79%29.83 "Hg2 mi
5:00 AM81 °FClear.3 mph79%29.83 "Hg10 mi
4:00 AM82 °FClear.3 mph79%29.83 "Hg10 mi
3:00 AM82 °FClear.5 mph79%29.80 "Hg10 mi
2:00 AM84 °FPassing clouds.7 mph79%29.83 "HgN/A
1:00 AM84 °FClear.12 mph74%29.83 "Hg10 mi
12:00 AM86 °FClear.15 mph75%29.83 "Hg10 mi
11:00 PM
Oct 20
86 °FClear.14 mph79%29.83 "Hg4 mi
10:00 PM86 °FClear.16 mph75%29.83 "Hg4 mi
9:00 PM86 °FClear.20 mph75%29.83 "Hg4 mi
8:00 PM86 °FClear.23 mph75%29.80 "Hg4 mi
7:00 PM88 °FPassing clouds.21 mph70%29.77 "Hg4 mi
6:00 PM86 °FPassing clouds.23 mph79%29.77 "Hg2 mi
Weather by CustomWeather, © 2014

See weather overviewHow to use our weather pages